AO-07 1 07530U 74089B 21189.49002208 -.00000046 00000-0 60430-6 0 9999 2 07530 101.8547 163.9715 0012206 343.9779 131.9729 12.53649392134361 UO-11 1 14781U 84021B 21189.50883023 .00000135 00000-0 22586-4 0 9992 2 14781 97.5924 188.3134 0008945 22.4202 337.7402 14.83300319989054 LO-19 1 20442U 90005G 21189.43436787 -.00000020 00000-0 90905-5 0 9990 2 20442 98.7425 145.0932 0012902 98.4938 261.7708 14.32990847643830 HUBBLE 1 20580U 90037B 21189.67577147 .00000576 00000-0 23844-4 0 9992 2 20580 28.4700 284.6572 0002483 295.0070 181.9292 15.09677983514469 MET-2/21 1 22782U 93055A 21189.70754795 .00000026 00000-0 10180-4 0 9990 2 22782 82.5499 287.0390 0021378 229.5279 241.0090 13.83837877406737 AO-27 1 22825U 93061C 21189.50754396 -.00000002 00000-0 17118-4 0 9993 2 22825 98.9162 207.6390 0008003 340.9492 19.1388 14.30118697448999 IO-26 1 22826U 93061D 21189.33306902 .00000005 00000-0 19930-4 0 9997 2 22826 98.9104 207.3670 0008311 327.6621 32.4050 14.30458166449210 FO-29 1 24278U 96046B 21189.45020394 -.00000049 00000-0 -16522-4 0 9991 2 24278 98.5662 254.6429 0351382 95.2748 268.8581 13.53105078229082 NOAA-15 1 25338U 98030A 21189.69631874 .00000081 00000-0 52365-4 0 9990 2 25338 98.6802 218.0297 0009714 213.4176 146.6392 14.26043474204271 GO-32 1 25397U 98043D 21189.41921203 -.00000022 00000-0 97626-5 0 9993 2 25397 98.7718 134.9150 0002059 52.8469 307.2897 14.23711157194474 ISS 1 25544U 98067A 21189.89324074 .00000844 00000-0 23621-4 0 9992 2 25544 51.6438 235.3851 0002018 142.9348 212.7565 15.48774199291957 NO-44 1 26931U 01043C 21189.57040035 -.00000018 00000-0 24673-4 0 9990 2 26931 67.0498 225.9392 0006227 261.4632 98.5763 14.30624255 32218 SO-50 1 27607U 02058C 21189.71437311 .00000002 00000-0 20769-4 0 9995 2 27607 64.5555 273.3312 0043119 13.9026 346.3253 14.75763526997854 CO-55 1 27844U 03031E 21189.51023743 .00000055 00000-0 44325-4 0 9990 2 27844 98.6790 197.4025 0010373 24.8328 335.3347 14.22318750934978 CO-57 1 27848U 03031J 21189.43932911 .00000047 00000-0 41185-4 0 9993 2 27848 98.6846 197.8959 0010513 37.5160 322.6749 14.21894778934798 RS-22 1 27939U 03042A 21189.79903117 .00000161 00000-0 37444-4 0 9991 2 27939 98.1436 326.7469 0012416 207.1453 152.9109 14.66997979950655 NOAA-18 1 28654U 05018A 21189.69498079 .00000084 00000-0 69514-4 0 9993 2 28654 98.9930 254.6430 0013649 218.5829 141.4368 14.12620347831534 CO-58 1 28895U 05043F 21189.34115323 .00000147 00000-0 36943-4 0 9998 2 28895 98.0616 322.1262 0017697 141.2852 218.9623 14.63929741837066 Falconsat-3 1 30776U 07006E 21189.55069751 .00004539 00000-0 10849-3 0 9991 2 30776 35.4352 324.6201 0001498 94.6333 265.4566 15.40991030796362 CO-65 1 32785U 08021C 21189.16817709 .00000306 00000-0 38401-4 0 9995 2 32785 97.6118 167.2080 0011547 298.4070 61.5983 14.88745677715328 AAUSAT2 1 32788U 08021F 21189.69778986 .00000246 00000-0 27075-4 0 9997 2 32788 97.5048 183.4647 0011134 191.0745 169.0233 14.95631596717135 DO-64 1 32789U 08021G 21189.36867181 .00002548 00000-0 16431-3 0 9998 2 32789 97.3744 223.9281 0013401 74.0890 286.1815 15.09099271719987 CO-66 1 32791U 08021J 21189.22762961 .00000572 00000-0 62506-4 0 9996 2 32791 97.5715 173.1567 0011558 255.9365 104.0569 14.91439920715878 RS-30 1 32953U 08025A 21189.71683249 .00000021 00000-0 80971-4 0 9990 2 32953 82.5046 37.7059 0018835 292.7295 67.1795 12.43102311595621 PRISM 1 33493U 09002B 21189.44049646 .00001182 00000-0 10622-3 0 9997 2 33493 98.1894 152.9952 0014091 211.6789 148.3585 14.97712748677469 NOAA-19 1 33591U 09005A 21189.66023618 .00000063 00000-0 59444-4 0 9997 2 33591 99.1819 210.8901 0014944 74.5097 285.7722 14.12480939639917 SRMSAT 1 37841U 11058D 21189.28310509 .00000292 00000-0 15084-4 0 9992 2 37841 19.9707 175.1805 0011961 161.8771 227.8153 14.10698578502604 HRBE 1 37855U 11061F 21189.79099723 .00002939 00000-0 14691-3 0 9991 2 37855 101.7121 124.2529 0166544 7.3075 353.0508 15.07828992529861 RS-40 1 38735U 12041C 21189.52840707 .00000035 00000-0 18002-3 0 9990 2 38735 82.4771 119.9570 0018411 42.3765 317.8732 12.42583443405805 ZACUBE-1 1 39417U 13066B 21189.58998563 .00000325 00000-0 46538-4 0 9994 2 39417 97.5933 172.8227 0060205 91.7745 269.0366 14.81537027412206 GOMX-1 1 39430U 13066Q 21189.71506740 .00000314 00000-0 65127-4 0 9999 2 39430 97.8133 111.5634 0151832 48.1933 313.2134 14.59630431406149 LO-74 1 39440U 13066AA 21189.46412611 .00000236 00000-0 39461-4 0 9990 2 39440 97.6771 157.7739 0080050 166.2842 194.0570 14.76262861409529 AO-73 1 39444U 13066AE 21189.76366607 .00000407 00000-0 55561-4 0 9999 2 39444 97.5837 175.3555 0059262 81.7241 279.0687 14.82449805411182 SPROUT 1 39770U 14029E 21189.58521329 .00001105 00000-0 12491-3 0 9995 2 39770 97.9182 300.8413 0009652 132.3615 227.8402 14.88487037386480 DTUSAT-2 1 40030U 14033W 21189.52267989 .00000314 00000-0 39344-4 0 9992 2 40030 97.9163 116.7648 0013289 103.5140 256.7559 14.89015881382450 EO-80 1 40032U 14033Y 21189.75528871 .00000361 00000-0 44416-4 0 9997 2 40032 97.9168 117.0043 0013195 103.7496 256.5191 14.88973670382988 HODOYOSHI-1 1 40299U 14070B 21189.83663024 .00000974 00000-0 42087-4 0 9994 2 40299 97.2855 262.8375 0011018 273.7560 222.9648 15.24778442370676 FIREBIRD FU3 1 40377U 15003B 21189.64896861 .00004281 00000-0 15561-3 0 9995 2 40377 99.1019 335.3229 0118081 101.8635 259.5867 15.22643689356026 FIREBIRD FU4 1 40378U 15003C 21189.36180820 .00004754 00000-0 17202-3 0 9995 2 40378 99.1024 335.1198 0118158 102.6152 258.8322 15.22693707355971 GRIFEX 1 40379U 15003D 21189.62639416 .00003310 00000-0 13454-3 0 9997 2 40379 99.0982 324.5770 0128838 134.5061 226.6785 15.18207395355404 NO-84 1 40654U 15025D 21188.37638284 .00046799 00000-0 29929-3 0 656 2 40654 54.9790 307.5383 0075117 117.0090 243.8759 15.71956790 10181 XW-2A 1 40903U 15049E 21189.85985502 .00004117 00000-0 87615-4 0 9992 2 40903 97.2350 244.2771 0010474 301.6887 113.3577 15.45488997326109 XW-2C 1 40906U 15049H 21189.87404233 .00001156 00000-0 62098-4 0 9992 2 40906 97.4853 191.9590 0016099 110.3499 5.6642 15.16795510320810 XW-2D 1 40907U 15049J 21189.86407589 .00001335 00000-0 70576-4 0 9998 2 40907 97.4842 191.7497 0015502 106.9911 10.8062 15.17123787320840 LILACSAT-2 1 40908U 15049K 21189.82935249 .00000344 00000-0 22262-4 0 9992 2 40908 97.5032 189.5287 0017112 122.1785 0.8849 15.14469053320469 XW-2E 1 40909U 15049L 21189.84970338 .00001787 00000-0 86917-4 0 9992 2 40909 97.4653 195.7723 0014862 94.2760 27.6746 15.19625023321182 XW-2F 1 40910U 15049M 21189.85965574 .00001839 00000-0 90572-4 0 9991 2 40910 97.4715 194.8620 0016023 94.4902 25.2149 15.19125896320970 XW-2B 1 40911U 15049N 21189.86801310 .00001329 00000-0 70439-4 0 9994 2 40911 97.4845 192.4328 0015428 107.9666 9.6777 15.17040085320730 DCBB 1 40912U 15049P 21189.88693440 .00002113 00000-0 96254-4 0 9995 2 40912 97.4437 199.2638 0016123 69.7419 49.6237 15.21678326321456 TW-1A 1 40928U 15051D 21189.89734063 .00005681 00000-0 11764-3 0 9998 2 40928 97.0751 214.2855 0008372 202.9972 277.8280 15.46120201325008 IO-86 1 40931U 15052B 21187.52225339 .00000656 00000-0 22002-5 0 9998 2 40931 5.9945 116.3829 0013766 314.1872 45.7216 14.76679496312123 ATHENOXAT-1 1 41168U 15077C 21188.99925351 .00002939 00000-0 11344-3 0 9992 2 41168 14.9842 109.9313 0010740 98.9031 351.7560 15.15796206307906 ChubuSat-2 1 41338U 16012B 21189.75408585 .00000425 00000-0 26153-4 0 9994 2 41338 31.0041 50.4528 0013644 343.8608 16.1592 15.00548441295804 ChubuSat-3 1 41339U 16012C 21189.90806836 .00000379 00000-0 22508-4 0 9991 2 41339 31.0125 46.6783 0013476 352.4728 7.5695 15.00694064295823 Horyu-4 1 41340U 16012D 21189.55373298 .00000672 00000-0 43565-4 0 9997 2 41340 31.0063 32.2438 0013653 21.4500 338.6706 15.01922081295962 e-st@r-II 1 41459U 16025D 21189.91179441 .00001882 00000-0 95032-4 0 9996 2 41459 98.1443 327.3926 0159148 350.6981 9.1299 15.08208700285653 AAUSAT4 1 41460U 16025E 21189.89659206 .00002281 00000-0 10900-3 0 9991 2 41460 98.1442 331.3641 0145826 334.2971 25.1052 15.11333625285955 LO-87 1 41557U 16033B 21189.99071522 .00002470 00000-0 88653-4 0 9998 2 41557 97.3942 283.8085 0013653 152.0356 322.4358 15.29564597284826 NuSat2 1 41558U 16033C 21189.83178903 .00002600 00000-0 87438-4 0 9998 2 41558 97.4051 287.5680 0012794 145.7934 330.3619 15.31656380284998 Lapan A3 1 41603U 16040E 21189.79246106 .00000244 00000-0 14359-4 0 9997 2 41603 97.2546 235.9130 0011750 291.8998 179.5919 15.20052497279826 Pratham 1 41783U 16059A 21189.39115350 .00000080 00000-0 24549-4 0 9998 2 41783 97.9627 238.7790 0033625 177.5679 182.5693 14.63149232255317 TY-1 1 41844U 16066D 21190.02747519 .00001532 00000-0 62500-4 0 9996 2 41844 97.3976 200.0196 0016260 64.7171 352.8205 15.25855578259195 CAS-2T 1 41847U 16066G 21189.76467622 .00000206 00000-0 40638-4 0 9997 2 41847 98.5999 248.9840 0365792 156.6263 205.2040 14.38206846244949 EO-88 1 42017U 17008BX 21189.44796304 .00002851 00000-0 10598-3 0 9990 2 42017 97.3152 256.6722 0007005 47.3724 312.8105 15.28315204244463 CAS-4B 1 42759U 17034B 21189.78897834 .00000575 00000-0 47868-4 0 9991 2 42759 43.0188 63.7830 0010056 297.2116 147.7496 15.10257359224374 CAS-4A 1 42761U 17034D 21189.77867552 .00000703 00000-0 55383-4 0 9991 2 42761 43.0180 62.8779 0010455 298.2223 146.4953 15.10345881224376 NIUSat 1 42766U 17036B 21189.54006255 .00001696 00000-0 75167-4 0 9992 2 42766 97.2485 234.7810 0016795 100.6566 259.6563 15.22816709224420 Aalto 1 1 42775U 17036L 21189.38225007 .00001395 00000-0 62502-4 0 9997 2 42775 97.2452 234.8681 0015262 100.2283 260.0676 15.22749508224389 URSA MAIOR 1 42776U 17036M 21189.84095994 .00001501 00000-0 66498-4 0 9996 2 42776 97.2467 235.7889 0015063 98.2413 262.0533 15.23020906224475 Max Valier Sat 1 42778U 17036P 21189.45094735 .00001685 00000-0 72907-4 0 9992 2 42778 97.2534 237.3725 0013673 101.2919 258.9856 15.23691079224488 Pegasus 1 42784U 17036V 21189.76963502 .00002067 00000-0 86658-4 0 9993 2 42784 97.2486 238.1645 0013228 103.0849 257.1866 15.24532741224606 NUDATSat 1 42787U 17036Y 21189.87977639 .00003041 00000-0 11898-3 0 9990 2 42787 97.2537 240.7490 0011910 90.2116 270.0504 15.26517371224600 SUCHAI 1 1 42788U 17036Z 21189.56069666 .00002507 00000-0 10204-3 0 9995 2 42788 97.2498 238.9787 0012727 101.1235 259.1435 15.25342964224701 SKCUBE 1 42789U 17036AA 21189.39671631 .00002382 00000-0 97875-4 0 9999 2 42789 97.2491 238.5223 0012638 102.1523 258.1132 15.25069362224585 VZLUSAT 1 1 42790U 17036AB 21189.41530989 .00003356 00000-0 13110-3 0 9995 2 42790 97.2525 240.2860 0012038 98.2071 262.0534 15.26495172224683 VENTA 1 1 42791U 17036AC 21189.44419767 .00002233 00000-0 92067-4 0 9991 2 42791 97.2488 238.5800 0012338 102.4798 257.7821 15.25012460224586 Robusta 1B 1 42792U 17036AD 21189.55910762 .00002433 00000-0 99190-4 0 9991 2 42792 97.2494 239.0672 0012217 101.6108 258.6503 15.25311544224648 D-SAT 1 42794U 17036AF 21189.62450602 .00000330 00000-0 33405-4 0 9994 2 42794 97.4599 208.3916 0126221 154.5440 206.2069 14.91596613220258 TechnoSat 1 42829U 17042E 21189.59002460 .00000308 00000-0 36127-4 0 9990 2 42829 97.4665 58.0021 0015744 77.9287 282.3695 14.91302297216834 QIKCOM-1 1 42983U 98067NF 21189.88380231 .00008636 00000-0 83904-4 0 9991 2 42983 51.6350 150.4581 0003939 71.1698 288.9725 15.67233274210765 AO-91 1 43017U 17073E 21189.29799243 .00000443 00000-0 39984-4 0 9997 2 43017 97.7055 92.4608 0253568 232.2013 125.5998 14.79593250196203 EcAMSat 1 43019U 98067NG 21189.36391426 .00033613 00000-0 17327-3 0 9991 2 43019 51.6372 116.2255 0003493 74.6307 285.5081 15.80817634293490 PICSAT 1 43132U 18004X 21189.50190600 .00002143 00000-0 86176-4 0 9990 2 43132 97.4090 263.8557 0010413 128.2899 231.9278 15.25964579193893 AO-92 1 43137U 18004AC 21189.45693338 .00001920 00000-0 78937-4 0 9993 2 43137 97.4064 263.2740 0010090 130.7381 229.4735 15.25346507193864 TianYi 2 1 43155U 18008A 21189.89004586 .00001269 00000-0 76376-4 0 9997 2 43155 97.4013 254.2139 0015490 252.9278 166.3653 15.12505001191319 Zhou Enlai 1 43156U 18008B 21189.83987855 .00001553 00000-0 93683-4 0 9997 2 43156 97.4051 253.9997 0012762 252.4442 219.1847 15.12117386191246 TianYi 6 1 43158U 18008D 21189.72505326 .00001308 00000-0 80801-4 0 9992 2 43158 97.3987 252.4327 0011951 254.0160 222.9503 15.11536114191154 S-Net D 1 43186U 18014G 21189.74459938 .00000486 00000-0 47166-4 0 9992 2 43186 97.6758 96.9488 0011220 18.4121 341.7505 14.97079836187480 S-Net B 1 43187U 18014H 21189.54401040 .00000469 00000-0 45648-4 0 9996 2 43187 97.6756 96.7176 0011232 18.9019 341.2617 14.97079056187455 S-Net A 1 43188U 18014J 21189.74459303 .00000482 00000-0 46800-4 0 9990 2 43188 97.6760 96.9602 0011214 18.4583 341.7044 14.97078124187485 S-Net C 1 43189U 18014K 21189.54456212 .00000486 00000-0 47101-4 0 9994 2 43189 97.6756 96.7105 0011222 19.0479 341.1160 14.97077792186007 FMN 1 1 43192U 18015A 21189.83453791 .00004272 00000-0 15766-3 0 9998 2 43192 97.4915 325.3116 0014968 161.5193 353.2242 15.28227267190857 Shaonian Xing 1 43199U 18015H 21189.79700223 .00003028 00000-0 11446-3 0 9994 2 43199 97.4695 322.3516 0016048 171.2882 324.1574 15.27659564190903 SurfSat 1 43614U 18070B 21189.89150341 .00004638 00000-0 10750-3 0 9993 2 43614 93.0341 314.9202 0011309 282.3792 77.6198 15.42394267157978 CP-7 DAVE 1 43615U 18070C 21189.58840641 .00004841 00000-0 11332-3 0 9992 2 43615 93.0345 314.7472 0011527 283.9558 76.0415 15.42092761157912 ELFIN-B 1 43616U 18070D 21189.50569877 .00008123 00000-0 17153-3 0 9998 2 43616 93.0298 314.9281 0011263 280.4504 79.5484 15.45130941158023 ELFIN-A 1 43617U 18070E 21189.32943276 .00008852 00000-0 18383-3 0 9993 2 43617 93.0344 315.7207 0010680 277.1619 82.8424 15.45623601158015 CubeBel 1 1 43666U 18083E 21189.78705286 .00001892 00000-0 92256-4 0 9997 2 43666 97.4536 217.8846 0016278 93.5481 24.2730 15.19433523149256 Changshagaoxin 1 43669U 18083H 21189.79350859 .00001518 00000-0 77434-4 0 9999 2 43669 97.4451 214.8988 0012482 89.3355 25.4704 15.18189894149123 Ten-Koh 1 43677U 18084G 21189.33394589 .00000143 00000-0 20548-4 0 9994 2 43677 97.9229 312.4276 0015181 330.5799 29.4563 14.90482744146412 PO-101 1 43678U 18084H 21189.91791737 .00000480 00000-0 53361-4 0 9998 2 43678 97.9258 315.3081 0009562 349.3187 10.7829 14.91765362146639 IRVINE 01 1 43693U 18088D 21189.93550137 .00004238 00000-0 16386-3 0 9998 2 43693 85.0336 180.6806 0014133 311.8734 48.1303 15.25814427147718 QO-100 1 43700U 18090A 21189.73848994 .00000154 00000-0 00000 0 0 9994 2 43700 0.0163 48.6090 0001208 92.5875 77.3519 1.00273026 9822 Reaktor Hello World 1 43743U 18096AA 21189.52442540 .00002278 00000-0 83525-4 0 9998 2 43743 97.3859 266.8762 0016675 196.3596 163.7108 15.28903639145355 MinXSS-2 1 43758U 18099A 21189.43738437 .00000060 00000-0 10443-4 0 9996 2 43758 97.6663 260.1948 0015000 344.1874 15.8877 14.96090589141657 AO-95 1 43770U 18099N 21189.46154955 .00000594 00000-0 58921-4 0 9995 2 43770 97.6640 259.1841 0014089 353.6624 6.4416 14.95349690141597 RANGE-B 1 43772U 18099Q 21189.15111975 .00000917 00000-0 87467-4 0 9994 2 43772 97.6732 259.9078 0013342 342.2439 17.8314 14.95659056141559 RANGE-A 1 43773U 18099R 21189.73625875 .00000696 00000-0 68361-4 0 9994 2 43773 97.6576 258.7549 0012750 340.1526 19.9197 14.95235962141628 MOVE-II 1 43780U 18099Y 21189.74885557 .00001121 00000-0 10503-3 0 9996 2 43780 97.6663 260.0237 0012833 350.7817 9.3167 14.95973463141653 SNUSat 2 1 43782U 18099AA 21189.75849751 .00000337 00000-0 35476-4 0 9990 2 43782 97.6643 259.8233 0012032 339.7420 20.3322 14.95592528141658 SnugLite 1 43784U 18099AC 21189.43059054 .00000132 00000-0 16986-4 0 9994 2 43784 97.6607 259.2236 0014595 347.4318 12.6537 14.95720369141620 ITASat 1 1 43786U 18099AE 21189.44355346 -.00000059 00000-0 -17015-6 0 9996 2 43786 97.6662 259.8594 0014707 346.1997 13.8820 14.95641453141624 EAGLET 1 1 43790U 18099AJ 21189.47317344 .00000780 00000-0 74619-4 0 9990 2 43790 97.6652 260.3086 0012900 351.1167 8.9824 14.95989449141358 ESEO 1 43792U 18099AL 21189.46129970 .00000244 00000-0 27006-4 0 9990 2 43792 97.6614 259.8730 0012798 347.7951 12.2959 14.95750385141402 CSIM 1 43793U 18099AM 21189.74150231 .00001209 00000-0 11102-3 0 9997 2 43793 97.6649 260.5700 0011980 343.6860 16.3974 14.96634832141459 Astrocast 0.1 1 43798U 18099AS 21189.75411341 .00000755 00000-0 71957-4 0 9995 2 43798 97.6661 260.7883 0011302 330.1112 29.9463 14.96222591141707 JO-97 1 43803U 18099AX 21189.73838807 .00000863 00000-0 82114-4 0 9997 2 43803 97.6623 259.8971 0014389 345.4889 14.5917 14.95893364141678 Suomi 100 1 43804U 18099AY 21189.74430578 .00000888 00000-0 84439-4 0 9991 2 43804 97.6622 259.8678 0014497 345.8973 14.1841 14.95864385141684 Al Farabi 2 1 43805U 18099AZ 21189.60844552 .00000791 00000-0 75396-4 0 9993 2 43805 97.6626 259.9642 0014707 345.9899 14.0928 14.96086616141671 CHOMPTT 1 43855U 18104G 21189.53059013 .00001617 00000-0 64633-4 0 9997 2 43855 85.0375 279.5327 0019202 71.6751 288.6579 15.24065121142303 ISAT 1 43879U 18111D 21189.92361477 .00000037 00000-0 82778-5 0 9990 2 43879 97.6842 96.8017 0014353 35.3829 324.8326 14.96662662136260 UWE-4 1 43880U 18111E 21189.70774349 .00000378 00000-0 37890-4 0 9996 2 43880 97.6863 97.0780 0013458 38.8053 321.4133 14.96903336136262 Sparrow 1 43881U 18111F 21189.54397813 .00000655 00000-0 61921-4 0 9996 2 43881 97.6862 97.0527 0013217 36.7815 323.4311 14.96953476138247 Lume 1 1 43908U 18111AJ 21189.43969328 .00001667 00000-0 66661-4 0 9990 2 43908 97.2314 83.4791 0019283 213.0145 146.9892 15.26319726140874 FO-98 1 43933U 19003B 21189.39553378 .00013085 00000-0 48724-3 0 9994 2 43933 97.1815 230.0202 0014118 323.4476 36.5799 15.27501219137304 FO-99 1 43937U 19003F 21189.37359719 .00002138 00000-0 85755-4 0 9992 2 43937 97.1745 231.7167 0021415 300.6010 59.3117 15.25855830137459 MYSat 1 1 44045U 18092F 21189.75457749 .00004664 00000-0 12405-3 0 9991 2 44045 51.6388 322.2166 0009824 284.5933 75.3962 15.40193350134741 AstroCast 0.2 1 44083U 19018F 21189.66677037 .00001628 00000-0 72835-4 0 9997 2 44083 97.3716 250.3498 0011138 255.8579 104.1420 15.22665812126122 AISTechSat 3 1 44103U 19018AB 21189.75372627 .00001404 00000-0 60575-4 0 9997 2 44103 97.3580 250.8335 0011302 271.0694 236.8000 15.24141927126259 AISat 1 1 44104U 19018AC 21189.17632168 .00001162 00000-0 38395-4 0 9999 2 44104 97.4253 266.4993 0054890 281.9736 77.5356 15.32141120126840 Raavana-1 1 44329U 98067QE 21189.36673466 .00068476 00000-0 35878-3 0 9999 2 44329 51.6324 176.9181 0005695 27.9456 332.1851 15.80130975117467 Uguisu 1 44330U 98067QF 21189.68941258 .00063569 00000-0 34367-3 0 9993 2 44330 51.6279 175.9669 0005848 26.4759 333.6540 15.79470114117481 NepaliSat-1 1 44331U 98067QG 21189.36401554 .00066588 00000-0 35100-3 0 9999 2 44331 51.6297 176.7975 0005617 27.3877 332.7420 15.80010139117459 Prox-1 1 44339U 19036A 21189.71793795 .00000848 00000-0 14928-3 0 9998 2 44339 23.9990 200.2790 0011559 55.9199 304.2388 14.53624905108350 Oculus-ASR 1 44348U 19036K 21189.52695899 .00021022 00000-0 28238-3 0 9999 2 44348 28.5123 353.6124 0327789 135.0226 227.7407 15.12747193112109 Armadillo 1 44352U 19036P 21189.46000747 .00035556 00000-0 44359-3 0 9998 2 44352 28.5296 331.2144 0295369 169.6361 191.0489 15.20758155112270 NO-104 1 44354U 19036R 21189.46824589 .00022595 00000-0 29632-3 0 9994 2 44354 28.5287 346.8785 0322600 143.8731 218.4117 15.14295334112167 NO-103 1 44355U 19036S 21189.66188350 .00041944 -59466-5 43179-3 0 9993 2 44355 28.5283 296.9819 0255979 225.2286 132.7222 15.31594456112678 CP9 1 44360U 19036X 21189.44085833 .00097930 -41888-5 58942-3 0 9996 2 44360 28.5011 227.3032 0168885 340.7129 18.7142 15.58764476113222 Move-IIb 1 44398U 19038N 21189.59590059 .00001897 00000-0 10837-3 0 9999 2 44398 97.5841 153.5067 0022668 235.5952 124.3127 15.13750263110966 SONATE 1 44400U 19038Q 21189.94722660 .00001031 00000-0 62550-4 0 9997 2 44400 97.5914 153.7159 0023276 234.1113 125.7950 15.12593307110989 BeeSat 9 1 44412U 19038AC 21189.43071168 .00001287 00000-0 75669-4 0 9992 2 44412 97.5890 153.4923 0020586 239.9749 119.9440 15.13349706110623 JAISAT-1 1 44419U 19038F 21189.45986708 .00001276 00000-0 74069-4 0 9997 2 44419 97.5895 154.0853 0019471 237.7027 122.2319 15.13834567110974 LightSail-2 1 44420U 19036AC 21189.08554509 -.00001354 00000-0 -32110-3 0 9995 2 44420 24.0041 182.2355 0019240 82.7604 277.5075 14.60192030106631 Taurus 1 1 44530U 19059C 21189.83012741 .00000639 00000-0 19139-3 0 9991 2 44530 98.5526 280.3553 0015339 81.1667 279.1260 14.46098578 96171 Duchifat 3 1 44854U 19089C 21189.76849716 .00000594 00000-0 53773-4 0 9998 2 44854 36.9689 334.5799 0009825 310.1415 49.8466 14.99531905 86307 OPS-SAT 1 44878U 19092F 21189.43586666 .00001459 00000-0 77951-4 0 9999 2 44878 97.4751 12.6238 0015428 96.5302 263.7688 15.16591037 86016 TO-108 1 44881U 19093C 21189.81062011 .00000080 00000-0 17006-4 0 9993 2 44881 97.9234 268.4062 0013985 220.0050 140.0139 14.81461541 83895 FloripaSat 1 1 44885U 19093G 21189.81931484 .00000374 00000-0 53444-4 0 9998 2 44885 97.9257 269.0304 0013514 227.9023 132.1042 14.82320582 83934 RS-44 1 44909U 19096E 21189.26767774 .00000021 00000-0 35889-4 0 9998 2 44909 82.5218 98.9859 0218386 44.6378 317.2077 12.79710685 71485 SwampSat-2 1 45115U 19071E 21189.79638462 .00048073 00000-0 67384-3 0 9993 2 45115 51.6342 269.3463 0008574 8.2452 351.8679 15.56238564 80762 HO-107 1 45119U 19071J 21189.36840651 .00003767 00000-0 11671-3 0 9994 2 45119 51.6422 295.4655 0011326 7.9953 352.1208 15.35951488 80383 Phoenix 1 45258U 98067RB 21189.35624972 .00008950 00000-0 12783-3 0 9999 2 45258 51.6379 224.2854 0005722 339.6690 20.4074 15.57075610 78465 AztechSat-1 1 45261U 98067RE 21189.34448282 .00032188 00000-0 30304-3 0 9999 2 45261 51.6336 212.1747 0007110 1.7982 358.3039 15.66766100 78648 QARMAN 1 45263U 98067RG 21189.37927456 .00019602 00000-0 22035-3 0 9997 2 45263 51.6362 217.6923 0006769 355.1716 4.9212 15.62588663 78611 Quetzal 1 1 45598U 98067RL 21189.44992086 .00016873 00000-0 20630-3 0 9993 2 45598 51.6379 221.9395 0002622 48.2759 311.8458 15.60533311 67834 BY70-2 1 45857U 20042B 21189.78089742 .00001418 00000-0 20782-3 0 9999 2 45857 97.9831 265.3064 0012461 139.3726 220.8412 14.77094273 54696 UPMSat 2 1 46276U 20061E 21189.46672050 .00000702 00000-0 39387-4 0 9998 2 46276 97.4317 262.8226 0000549 36.9549 323.1722 15.16506027 46722 AmicalSat 1 46287U 20061R 21189.44126332 .00000800 00000-0 52311-4 0 9996 2 46287 97.4870 262.2479 0003695 49.4043 310.7508 15.10524498 46512 SALSAT 1 46495U 20068K 21189.62529706 .00000665 00000-0 53198-4 0 9999 2 46495 97.6942 126.9947 0017020 6.3549 353.7890 15.03489900 42518 BY70-3 1 46839U 20079N 21189.91700862 .00003789 00000-0 11800-3 0 9992 2 46839 97.2396 263.3466 0008664 123.1796 354.4627 15.33844359 37490 SPOC 1 46921U 98067RR 21189.41476064 .00008141 00000-0 12695-3 0 9995 2 46921 51.6406 231.4732 0001565 134.0383 226.0738 15.54807373 38122 Bobcat-1 1 46922U 98067RS 21189.53360950 .00012219 00000-0 17445-3 0 9994 2 46922 51.6410 229.2889 0000891 124.0117 236.0960 15.56695385 38118 Neutron-1 1 46923U 98067RT 21189.36774286 .00007902 00000-0 12401-3 0 9997 2 46923 51.6404 231.9065 0001315 151.3692 208.7371 15.54677783 38146 CAPE 3 1 47309U 21002A 21189.74897086 .00001283 00000-0 68746-4 0 9997 2 47309 60.6803 212.3337 0043417 59.3887 301.1470 15.20830192 26126 AO-109 1 47311U 21002C 21189.45010781 .00000974 00000-0 54003-4 0 9994 2 47311 60.6852 212.5948 0039355 59.6242 300.8726 15.21725322 26069 MiTEE 1 1 47314U 21002F 21189.56629886 .00002131 00000-0 99394-4 0 9990 2 47314 60.6831 210.8521 0037960 50.9748 309.4708 15.23229172 26128 ExoCube 2 1 47319U 21002L 21189.42572672 .00000998 00000-0 55608-4 0 9999 2 47319 60.6813 213.0226 0039830 59.9679 300.5349 15.21341655 26021 UVSQ-SAT 1 47438U 21006AB 21189.67497114 .00001046 00000-0 62502-4 0 9995 2 47438 97.4862 250.5181 0013459 31.7566 328.4474 15.13194012 25260 YUSAT 1 1 47439U 21006AC 21189.14827451 .00001291 00000-0 76251-4 0 9997 2 47439 97.4864 249.9995 0013365 33.8467 326.3615 15.13192912 25189 SOMP 2b 1 47445U 21006AJ 21189.16251188 .00001071 00000-0 64191-4 0 9990 2 47445 97.4833 249.9148 0013221 37.1067 323.1075 15.13030740 25181 IDEASSat 1 47458U 21006AX 21189.77255286 .00001054 00000-0 63507-4 0 9995 2 47458 97.4924 250.6807 0012240 33.6668 326.5338 15.12895370 25271 RSP-01 1 47925U 98067SB 21189.42653710 .00008694 00000-0 14919-3 0 9990 2 47925 51.6413 236.0340 0002143 93.4131 266.7104 15.52021955 18031 TAUSAT-1 1 47926U 98067SC 21189.64832278 .00009588 00000-0 15969-3 0 9992 2 47926 51.6405 234.5142 0003039 98.7825 261.3509 15.52726968 18068 Tsuru 1 47927U 98067SD 21189.43342420 .00007559 00000-0 13166-3 0 9998 2 47927 51.6413 236.0798 0002277 93.9173 266.2077 15.51818421 18034 STARS-EC 1 47928U 98067SE 21189.42900295 .00010827 00000-0 18262-3 0 9992 2 47928 51.6410 236.0440 0004419 187.4087 172.6838 15.52211960 18018 Maya-2 1 47929U 98067SF 21189.43106211 .00007564 00000-0 13160-3 0 9996 2 47929 51.6414 236.0640 0002389 91.5540 268.5724 15.51847951 17997 OPUSAT-II 1 47930U 98067SG 21189.40848505 .00012384 00000-0 20479-3 0 9991 2 47930 51.6412 235.9150 0002288 78.0268 282.0979 15.52618422 18035 GuaraniSat-1 1 47931U 98067SH 21189.43006178 .00007404 00000-0 12892-3 0 9994 2 47931 51.6415 236.0582 0002452 91.6906 268.4364 15.51861286 18036 CubeSX-Sirius-HSE 1 47951U 21022V 21189.90981493 .00000605 00000-0 45987-4 0 9995 2 47951 97.5591 91.6378 0020415 236.3980 123.5291 15.05701457 16286 CubeSX-HSE 1 47952U 21022W 21189.90703710 .00000548 00000-0 42019-4 0 9999 2 47952 97.5582 91.6380 0020210 236.2449 123.6841 15.05740200 16283 KSU-Cubesat 1 47954U 21022Y 21189.70222153 .00000198 00000-0 17864-4 0 9997 2 47954 97.5577 91.4546 0020096 236.5431 123.3875 15.05819014 15976 GRBAlpha 1 47959U 21022AD 21189.70789556 .00000609 00000-0 46218-4 0 9999 2 47959 97.5590 91.4510 0020085 237.3554 122.5744 15.05738919 15071 Orbicraft-Zorkiy 1 47960U 21022AE 21189.90254204 .00000461 00000-0 35954-4 0 9991 2 47960 97.5594 91.6696 0019716 236.6234 123.3090 15.05805616 15791 STECCO 1 47962U 21022AG 21189.77704071 .00000781 00000-0 56438-4 0 9995 2 47962 97.5558 91.6625 0015113 233.0812 199.2500 15.06851190 15084 DO-111 1 47963U 21022AH 21189.20673245 .00002878 00000-0 19386-3 0 9991 2 47963 97.5576 91.1733 0018036 231.8346 128.1258 15.07353322 15025 MO-110 1 47964U 21022AJ 21189.67876470 .00001443 00000-0 99908-4 0 9994 2 47964 97.5565 91.6164 0018458 230.1793 129.7810 15.07120263 15075 RamSat 1 48850U 98067SL 21189.42824306 .00005618 00000-0 10662-3 0 9993 2 48850 51.6413 237.5267 0003649 217.7560 142.3173 15.49924236 3761 MO-112 1 48868U 98067SP 21189.43294848 .00010995 00000-0 20103-3 0 9990 2 48868 51.6411 237.5580 0001921 225.9043 134.1788 15.49903030 2549 TUBIN 1 48900U 21059X 21189.06711476 .00000912 00000-0 56593-4 0 9995 2 48900 97.5119 317.7352 0009769 202.1004 157.9806 15.12166662 1859 /EX
